Regional Weather Roundup
Issued by NWS

Home | Current Version | Previous Version | Graphics & Text | Print | Product List | Glossary On
Versions: 1 2 3 4 5 6 7 8 9 10 11 12 13 14 15 16 17 18 19 20 21 22 23 24 25 26 27
000
ASUS45 KBOU 101207
RWRCO

WEATHER ROUNDUP FOR COLORADO
NATIONAL WEATHER SERVICE DENVER/BOULDER CO
500 AM MST SAT DEC 10 2016

NOTE: "FAIR" INDICATES FEW OR NO CLOUDS BELOW 12000 FEET WITH NO
SIGNIFICANT WEATHER AND/OR OBSTRUCTIONS TO VISIBILITY.

COZ001>005-013-030-031-101300-
...NORTHWEST COLORADO...

CITY           SKY/WX    TMP DP  RH WIND       PRES   REMARKS
CRAIG          CLOUDY    27  22  81 E6        30.06F WCI  20
HAYDEN         CLOUDY    27  19  74 SE7       30.05S WCI  19
MEEKER         FAIR      39  25  57 SW15      30.07F
MOUNT WERNER   NOT AVBL
STEAMBOAT SPGS CLOUDY    22  21  96 CALM      30.05F
WALDEN           N/A     32  19  59 S14       30.02F WCI  22
$$

COZ006>008-011-101300-
...WEST CENTRAL VALLEYS...

CITY           SKY/WX    TMP DP  RH WIND       PRES   REMARKS
GRAND JUNCTION FAIR      22  19  89 E5        30.17F WCI  16
MONTROSE       FAIR      24  21  88 E6        30.18F WCI  17
EAGLE          FAIR      20  17  88 NW3       30.14F
RIFLE          FAIR      22  20  92 SE3       30.17F
DELTA          NOT AVBL
NUCLA          FAIR      28  23  80 E5        30.22F WCI  23
$$

COZ017>023-064>068-101300-
...SOUTHWEST COLORADO...

CITY           SKY/WX    TMP DP  RH WIND       PRES   REMARKS
DURANGO        FAIR      20  15  81 NE3       30.25S
CORTEZ         FAIR      21  19  92 E5        30.22F WCI  15
PAGOSA SPRINGS FAIR      18  17  95 CALM      30.27R
TELLURIDE      NOT AVBL
WOLF CREEK PAS FAIR      18  18 100 SW15      30.32R WCI   3
$$

COZ009-010-012-014-032>034-037-058>063-101300-
...CENTRAL COLORADO...

CITY           SKY/WX    TMP DP  RH WIND       PRES   REMARKS
ASPEN          FAIR      26  22  84 VRB6      30.11F WCI  19
BUENA VISTA    FAIR      40  15  35 NW16G30   30.09S
COPPER MTN     LGT SNOW  28  14  54 W35G45    30.14F VSB 1   WCI  12
BERTHOUD PASS  CLOUDY    19   9  63 W32G49    30.08F HAZE    WCI   0
COTTONWOOD PAS FAIR      37  12  35 W29G51    30.08S
GUNNISON       CLOUDY     6   3  87 CALM      30.25F
KREMMLING      FAIR      41  23  48 SW8       30.05F
LEADVILLE      FAIR      26  15  63 NE10      30.11F WCI  16
MONARCH PASS   FAIR      21  16  79 W36G44    30.31S WCI   2
SALIDA         FAIR      43  16  33 SW14G26   30.16F
SUNLIGHT       FAIR      23  19  86 SW23G33   30.18F WCI   7
WILKERSON PASS FAIR      27  14  59 SW13G23   30.10S WCI  16
$$

COZ069>075-101300-
...SAN LUIS VALLEY/SANGRE DE CRISTO MOUNTAINS...

CITY           SKY/WX    TMP DP  RH WIND       PRES   REMARKS
ALAMOSA        FAIR       8   5  87 NW3       30.21R
LA VETA PASS   FAIR      28  19  69 NE35G51   30.10F WCI  12
SAGUACHE       FAIR      18  14  86 NW10      30.21S WCI   6
$$

COZ035-036-038>040-101300-
...NORTHERN COLORADO FRONT RANGE...

CITY           SKY/WX    TMP DP  RH WIND       PRES   REMARKS
DENVER INTL AP FAIR      17  14  88 S3        29.95F FOG
DMNS CITY PARK   N/A     19  17  90 N2G12     29.97S
AURORA         PTCLDY    20  19  98 S6        29.95F WCI  12
FRONT RANGE AP FAIR      21  19  93 E3        29.95F
ERIE MUNI ARPT FAIR      14  12  92 CALM      29.98F FOG
BOULDER MUN AP FAIR      21  19  93 S6        29.96S WCI  14
CENTENNIAL     FAIR      23  19  85 W6        29.94F WCI  16
BROOMFIELD     FAIR      23  21  93 NE3       29.96F
FORT COLLINS   FAIR      16  14  93 NW5       29.97F WCI   9
LONGMONT       FAIR      17  13  85 W3        29.99S
$$

COZ041-046-047-076>085-087-088-101300-
...PIKES PEAK/PALMER DIVIDE AND SOUTHERN FOOTHILLS...

CITY           SKY/WX    TMP DP  RH WIND       PRES   REMARKS
COLO. SPRINGS  FAIR      32  17  54 NE6       30.00F WCI  26
A. F. ACADEMY  FAIR      22  15  75 N8        29.99F WCI  12
SCHRIEVER AFB  NOT AVBL
ELLICOTT       LGT RAIN N/A N/A N/A CALM      29.99F
FALCON         FAIR      30  16  56 W3        30.02S
FORT CARSON    FAIR      24  16  73 NW7       29.99F WCI  16
LIMON          FAIR      12  11  95 CALM      29.98F
MONUMENT HILL  FAIR      34  18  51 S14       30.00F WCI  24
TRINIDAD       FAIR      35  17  47 W13       30.03F WCI  26
$$

COZ042>045-048>051-090-091-101300-
...NORTHEAST COLORADO...

CITY           SKY/WX    TMP DP  RH WIND       PRES   REMARKS
GREELEY ARPT   FAIR      12   9  87 VRB3      30.00F
AKRON          FAIR      15  13  91 CALM      29.97F
BURLINGTON     FAIR      21  17  84 S6        30.01F WCI  13
WRAY           FAIR      14  12  92 SE5       30.04F WCI   6
STERLING       FAIR      14  12  92 CALM      29.98F
HOLYOKE        FAIR      19  16  86 E5        30.04F WCI  13
FORT MORGAN    FAIR      12   9  88 CALM      29.99F
$$

COZ086-089-092>099-101300-
...SOUTHEAST COLORADO...

CITY           SKY/WX    TMP DP  RH WIND       PRES   REMARKS
PUEBLO         FAIR      15  10  80 CALM      30.03S
LA JUNTA       FAIR      19  12  74 W6        30.05F WCI  11
LAMAR          FAIR      13  10  88 W8        30.04F WCI   2
SPRINGFIELD      N/A     21  19  92 S3        30.03S
$$




USA.gov is the U.S. government's official web portal to all federal, state and local government web resources and services.